Time,TemperatureF,DewpointF,PressureIn,WindDirection,WindDirectionDegrees,WindSpeedMPH,WindSpeedGustMPH,Humidity,HourlyPrecipIn,Conditions,Clouds,dailyrainin,SolarRadiationWatts/m^2,SoftwareType,DateUTC
2013-06-25 00:01:00,69.0,68.0,30.22,West,263,0.0,0.0,95,0.00,,,0.56,0.000000,,2013-06-25 04:01:00,
2013-06-25 00:02:00,69.0,68.0,30.22,West,263,0.0,0.0,95,0.00,,,0.56,0.000000,,2013-06-25 04:02:00,
2013-06-25 00:11:00,69.0,68.0,30.22,West,263,0.0,0.0,95,0.00,,,0.56,0.000000,,2013-06-25 04:11:00,
2013-06-25 00:22:00,69.0,68.0,30.23,West,263,0.0,0.0,96,0.00,,,0.56,0.000000,,2013-06-25 04:22:00,
2013-06-25 00:34:00,69.0,68.0,30.23,West,263,0.0,0.0,96,0.00,,,0.56,0.000000,,2013-06-25 04:34:00,
2013-06-25 00:43:00,69.0,68.0,30.23,West,263,0.0,0.0,96,0.00,,,0.56,0.000000,,2013-06-25 04:43:00,
2013-06-25 00:52:00,68.0,67.0,30.23,West,263,0.0,0.0,96,0.00,,,0.56,0.000000,,2013-06-25 04:52:00,
2013-06-25 01:01:00,68.0,67.0,30.23,West,263,0.0,0.0,96,0.00,,,0.56,0.000000,,2013-06-25 05:01:00,
2013-06-25 01:11:00,68.0,67.0,30.23,West,263,0.0,0.0,96,0.00,,,0.56,0.000000,,2013-06-25 05:11:00,
2013-06-25 01:22:00,68.0,67.0,30.23,West,263,0.0,0.0,96,0.00,,,0.56,0.000000,,2013-06-25 05:22:00,
2013-06-25 01:32:00,68.0,67.0,30.23,West,263,0.0,0.0,96,0.00,,,0.56,0.000000,,2013-06-25 05:32:00,
2013-06-25 01:52:00,68.0,67.0,30.23,West,263,0.0,0.0,97,0.00,,,0.56,0.000000,,2013-06-25 05:52:00,
2013-06-25 02:01:00,68.0,67.0,30.23,West,263,0.0,0.0,97,0.00,,,0.56,0.000000,,2013-06-25 06:01:00,
2013-06-25 02:11:00,68.0,67.0,30.23,West,263,0.0,0.0,97,0.00,,,0.56,0.000000,,2013-06-25 06:11:00,
2013-06-25 02:33:00,68.0,67.0,30.22,West,263,0.0,0.0,97,0.00,,,0.56,0.000000,,2013-06-25 06:33:00,
2013-06-25 02:43:00,68.0,67.0,30.22,West,263,0.0,0.0,97,0.00,,,0.56,0.000000,,2013-06-25 06:43:00,
2013-06-25 02:52:00,67.0,66.0,30.22,West,263,0.0,0.0,97,0.00,,,0.56,0.000000,,2013-06-25 06:52:00,
2013-06-25 03:02:00,67.0,66.0,30.22,West,263,0.0,0.0,97,0.00,,,0.56,0.000000,,2013-06-25 07:02:00,
2013-06-25 03:11:00,67.0,66.0,30.22,West,263,0.0,0.0,97,0.00,,,0.56,0.000000,,2013-06-25 07:11:00,
2013-06-25 03:22:00,67.0,66.0,30.22,West,263,0.0,0.0,97,0.00,,,0.56,0.000000,,2013-06-25 07:22:00,
2013-06-25 03:33:00,67.0,66.0,30.22,West,263,0.0,0.0,97,0.00,,,0.56,0.000000,,2013-06-25 07:33:00,
2013-06-25 03:43:00,67.0,66.0,30.22,West,263,0.0,0.0,97,0.00,,,0.56,0.000000,,2013-06-25 07:43:00,
2013-06-25 03:52:00,67.0,66.0,30.20,West,263,0.0,0.0,98,0.00,,,0.56,0.000000,,2013-06-25 07:52:00,
2013-06-25 04:02:00,67.0,66.0,30.20,West,263,0.0,0.0,98,0.00,,,0.56,0.000000,,2013-06-25 08:02:00,
2013-06-25 04:11:00,67.0,66.0,30.20,West,263,0.0,0.0,98,0.00,,,0.56,0.000000,,2013-06-25 08:11:00,
2013-06-25 04:34:00,66.0,65.0,30.20,West,263,0.0,0.0,97,0.00,,,0.56,0.000000,,2013-06-25 08:34:00,
2013-06-25 04:43:00,66.0,65.0,30.20,West,263,0.0,0.0,97,0.00,,,0.56,0.000000,,2013-06-25 08:43:00,
2013-06-25 04:53:00,66.0,65.0,30.20,West,263,0.0,0.0,98,0.00,,,0.56,0.000000,,2013-06-25 08:53:00,
2013-06-25 05:02:00,66.0,65.0,30.20,West,263,0.0,0.0,98,0.00,,,0.56,0.000000,,2013-06-25 09:02:00,
2013-06-25 05:12:00,66.0,65.0,30.20,West,263,0.0,0.0,98,0.00,,,0.56,0.000000,,2013-06-25 09:12:00,
2013-06-25 05:33:00,66.0,65.0,30.21,West,263,0.0,0.0,98,0.00,,,0.56,0.000000,,2013-06-25 09:33:00,
2013-06-25 05:43:00,66.0,65.0,30.21,West,263,0.0,0.0,98,0.00,,,0.56,0.000000,,2013-06-25 09:43:00,
2013-06-25 05:53:00,66.0,65.0,30.22,West,263,0.0,0.0,98,0.00,,,0.56,0.000000,,2013-06-25 09:53:00,
2013-06-25 06:01:00,66.0,65.0,30.22,West,263,0.0,0.0,98,0.00,,,0.56,0.000000,,2013-06-25 10:01:00,
2013-06-25 06:11:00,66.0,65.0,30.22,West,263,0.0,0.0,98,0.00,,,0.56,0.000000,,2013-06-25 10:11:00,
2013-06-25 06:33:00,67.0,66.0,30.22,West,263,0.0,0.0,98,0.00,,,0.56,0.000000,,2013-06-25 10:33:00,
2013-06-25 06:43:00,67.0,66.0,30.22,West,263,0.0,0.0,98,0.00,,,0.56,0.000000,,2013-06-25 10:43:00,
2013-06-25 06:52:00,67.0,66.0,30.22,West,263,0.0,0.0,98,0.00,,,0.56,0.000000,,2013-06-25 10:52:00,
2013-06-25 07:02:00,67.0,66.0,30.22,West,263,0.0,0.0,98,0.00,,,0.56,0.000000,,2013-06-25 11:02:00,
2013-06-25 07:12:00,67.0,66.0,30.22,West,263,0.0,0.0,98,0.00,,,0.56,0.000000,,2013-06-25 11:12:00,
2013-06-25 07:22:00,67.0,66.0,30.22,West,263,0.0,0.0,98,0.00,,,0.56,0.000000,,2013-06-25 11:22:00,
2013-06-25 09:12:00,70.0,70.0,30.24,WNW,293,0.0,3.0,99,0.00,,,0.56,171.000000,,2013-06-25 13:12:00,
2013-06-25 09:34:00,71.0,71.0,30.24,WNW,293,0.0,3.0,99,0.00,,,0.56,167.000000,,2013-06-25 13:34:00,
2013-06-25 09:42:00,71.0,71.0,30.24,WNW,293,0.0,3.0,99,0.00,,,0.56,167.000000,,2013-06-25 13:42:00,
2013-06-25 09:53:00,73.0,71.0,30.25,WNW,293,0.0,2.0,95,0.00,,,0.56,262.000000,,2013-06-25 13:53:00,
2013-06-25 10:01:00,73.0,71.0,30.25,WNW,293,0.0,2.0,95,0.00,,,0.56,262.000000,,2013-06-25 14:01:00,
2013-06-25 10:11:00,73.0,71.0,30.25,WNW,293,0.0,2.0,95,0.00,,,0.56,262.000000,,2013-06-25 14:11:00,
2013-06-25 10:23:00,75.0,72.0,30.25,WNW,294,1.0,2.0,89,0.00,,,0.56,330.000000,,2013-06-25 14:23:00,
2013-06-25 10:34:00,75.0,72.0,30.25,WNW,294,1.0,2.0,89,0.00,,,0.56,330.000000,,2013-06-25 14:34:00,
2013-06-25 10:43:00,75.0,72.0,30.25,WNW,294,1.0,2.0,89,0.00,,,0.56,330.000000,,2013-06-25 14:43:00,
2013-06-25 10:53:00,79.0,72.0,30.24,WNW,294,0.0,2.0,80,0.00,,,0.56,710.000000,,2013-06-25 14:53:00,
2013-06-25 11:02:00,79.0,72.0,30.24,WNW,294,0.0,2.0,80,0.00,,,0.56,710.000000,,2013-06-25 15:02:00,
2013-06-25 11:11:00,79.0,72.0,30.24,WNW,294,0.0,2.0,80,0.00,,,0.56,710.000000,,2013-06-25 15:11:00,
2013-06-25 11:22:00,81.0,72.0,30.24,WNW,294,0.0,2.0,74,0.00,,,0.56,842.000000,,2013-06-25 15:22:00,
2013-06-25 11:32:00,81.0,72.0,30.24,WNW,294,0.0,2.0,74,0.00,,,0.56,842.000000,,2013-06-25 15:32:00,
2013-06-25 11:44:00,81.0,72.0,30.24,WNW,294,0.0,2.0,74,0.00,,,0.56,842.000000,,2013-06-25 15:44:00,
2013-06-25 11:53:00,81.0,71.0,30.24,West,263,0.0,5.0,71,0.00,,,0.56,882.000000,,2013-06-25 15:53:00,
2013-06-25 12:03:00,81.0,71.0,30.24,West,263,0.0,5.0,71,0.00,,,0.56,882.000000,,2013-06-25 16:03:00,
2013-06-25 12:12:00,81.0,71.0,30.24,West,263,0.0,5.0,71,0.00,,,0.56,882.000000,,2013-06-25 16:12:00,
2013-06-25 12:35:00,84.0,72.0,30.24,WNW,284,0.0,4.0,67,0.00,,,0.54,958.000000,,2013-06-25 16:35:00,
2013-06-25 12:44:00,84.0,72.0,30.24,WNW,284,0.0,4.0,67,0.00,,,0.54,958.000000,,2013-06-25 16:44:00,
2013-06-25 13:01:00,86.0,73.0,30.23,WNW,284,0.0,1.0,66,0.00,,,0.54,1056.000000,,2013-06-25 17:01:00,
2013-06-25 13:11:00,86.0,73.0,30.23,WNW,284,0.0,1.0,66,0.00,,,0.54,1056.000000,,2013-06-25 17:11:00,
2013-06-25 13:33:00,87.0,73.0,30.22,WNW,297,0.0,1.0,63,0.00,,,0.51,237.000000,,2013-06-25 17:33:00,
2013-06-25 13:44:00,87.0,73.0,30.22,WNW,297,0.0,1.0,63,0.00,,,0.51,237.000000,,2013-06-25 17:44:00,
2013-06-25 13:53:00,88.0,73.0,30.20,WNW,297,0.0,1.0,61,0.00,,,0.51,1027.000000,,2013-06-25 17:53:00,
2013-06-25 14:02:00,88.0,73.0,30.20,WNW,297,0.0,1.0,61,0.00,,,0.51,1027.000000,,2013-06-25 18:02:00,
2013-06-25 14:12:00,88.0,73.0,30.20,WNW,297,0.0,1.0,61,0.00,,,0.51,1027.000000,,2013-06-25 18:12:00,
2013-06-25 14:33:00,89.0,74.0,30.19,WNW,294,0.0,1.0,61,0.00,,,0.49,879.000000,,2013-06-25 18:33:00,
2013-06-25 14:34:00,89.0,72.0,30.19,WNW,294,0.0,1.0,58,0.00,,,0.49,1085.000000,,2013-06-25 18:34:00,
2013-06-25 14:45:00,89.0,72.0,30.19,WNW,294,0.0,1.0,58,0.00,,,0.49,1085.000000,,2013-06-25 18:45:00,
2013-06-25 14:53:00,89.0,74.0,30.19,WNW,294,0.0,1.0,61,0.00,,,0.49,879.000000,,2013-06-25 18:53:00,
2013-06-25 15:01:00,89.0,74.0,30.19,WNW,294,0.0,1.0,61,0.00,,,0.49,879.000000,,2013-06-25 19:01:00,
2013-06-25 15:12:00,89.0,74.0,30.19,WNW,294,0.0,1.0,61,0.00,,,0.49,879.000000,,2013-06-25 19:12:00,
2013-06-25 15:22:00,89.0,74.0,30.19,WNW,294,0.0,1.0,61,0.00,,,0.49,879.000000,,2013-06-25 19:22:00,
2013-06-25 15:33:00,75.0,71.0,30.18,WSW,250,0.0,4.0,87,0.08,,,0.29,823.000000,,2013-06-25 19:33:00,
2013-06-25 15:54:00,75.0,71.0,30.18,WSW,250,0.0,4.0,87,0.08,,,0.29,823.000000,,2013-06-25 19:54:00,
2013-06-25 16:02:00,75.0,71.0,30.18,WSW,250,0.0,4.0,87,0.08,,,0.29,823.000000,,2013-06-25 20:02:00,
2013-06-25 16:11:00,75.0,71.0,30.18,WSW,250,0.0,4.0,87,0.08,,,0.29,823.000000,,2013-06-25 20:11:00,
2013-06-25 16:22:00,75.0,71.0,30.18,WSW,250,0.0,4.0,87,0.08,,,0.29,823.000000,,2013-06-25 20:22:00,
2013-06-25 17:01:00,81.0,75.0,30.15,WSW,250,0.0,1.0,81,0.00,,,0.10,260.000000,,2013-06-25 21:01:00,
2013-06-25 17:11:00,81.0,75.0,30.15,WSW,250,0.0,1.0,81,0.00,,,0.10,260.000000,,2013-06-25 21:11:00,
2013-06-25 17:33:00,82.0,72.0,30.14,WSW,249,1.0,2.0,73,0.00,,,0.08,53.000000,,2013-06-25 21:33:00,
2013-06-25 17:34:00,82.0,74.0,30.14,WSW,249,0.0,2.0,78,0.00,,,0.08,127.000000,,2013-06-25 21:34:00,
2013-06-25 17:43:00,82.0,74.0,30.14,WSW,249,0.0,2.0,78,0.00,,,0.08,127.000000,,2013-06-25 21:43:00,
2013-06-25 17:53:00,82.0,72.0,30.14,WSW,249,1.0,2.0,73,0.00,,,0.08,53.000000,,2013-06-25 21:53:00,
2013-06-25 18:01:00,82.0,72.0,30.14,WSW,249,1.0,2.0,73,0.00,,,0.08,53.000000,,2013-06-25 22:01:00,
2013-06-25 18:11:00,82.0,72.0,30.14,WSW,249,1.0,2.0,73,0.00,,,0.08,53.000000,,2013-06-25 22:11:00,
2013-06-25 18:22:00,82.0,72.0,30.14,WSW,249,1.0,2.0,73,0.00,,,0.08,53.000000,,2013-06-25 22:22:00,
2013-06-25 21:53:00,75.0,71.0,30.13,WSW,249,0.0,0.0,88,0.00,,,0.08,0.000000,,2013-06-26 01:53:00,
2013-06-25 22:02:00,75.0,71.0,30.13,WSW,249,0.0,0.0,88,0.00,,,0.08,0.000000,,2013-06-26 02:02:00,
2013-06-25 22:11:00,75.0,71.0,30.13,WSW,249,0.0,0.0,88,0.00,,,0.08,0.000000,,2013-06-26 02:11:00,
2013-06-25 22:34:00,74.0,71.0,30.14,WSW,249,0.0,0.0,89,0.00,,,0.08,0.000000,,2013-06-26 02:34:00,
2013-06-25 22:43:00,74.0,71.0,30.14,WSW,249,0.0,0.0,89,0.00,,,0.08,0.000000,,2013-06-26 02:43:00,
2013-06-25 22:53:00,73.0,70.0,30.15,WSW,249,0.0,0.0,91,0.00,,,0.08,0.000000,,2013-06-26 02:53:00,
2013-06-25 23:02:00,73.0,70.0,30.15,WSW,249,0.0,0.0,91,0.00,,,0.08,0.000000,,2013-06-26 03:02:00,
2013-06-25 23:11:00,73.0,70.0,30.15,WSW,249,0.0,0.0,91,0.00,,,0.08,0.000000,,2013-06-26 03:11:00,
2013-06-25 23:33:00,72.0,70.0,30.15,WSW,249,0.0,0.0,93,0.00,,,0.08,0.000000,,2013-06-26 03:33:00,
2013-06-25 23:43:00,72.0,70.0,30.15,WSW,249,0.0,0.0,93,0.00,,,0.08,0.000000,,2013-06-26 03:43:00,
2013-06-25 23:52:00,72.0,70.0,30.14,WSW,249,0.0,0.0,93,0.00,,,0.08,0.000000,,2013-06-26 03:52:00,